{"data":{"norad_id":68269,"epoch":"2026-09-20T00:46:21.978048Z","epoch_age_seconds":92002,"freshness":"FRESH","line1":"1 68269U 26055H   26263.03219882  .00022082  00000+0  66260-3 0  9997","line2":"2 68269  53.1605 131.7229 0000894  58.1469 301.9620 15.34407636 29755","mean_motion":15.34407636,"eccentricity":8.94e-5,"inclination_deg":53.1605,"raan_deg":131.7229,"arg_perigee_deg":58.1469,"mean_anomaly_deg":301.962,"bstar":0.0006626,"rev_number":2975,"period_min":93.847291046719,"perigee_km":462.06897541153,"apogee_km":463.29211358849,"semimajor_km":6840.8175445,"source":"CELESTRAK","updated_at":"2026-09-20T09:00:43.847228Z"}}